Flag for Germany Weather past 2 weeks in Hattingen, North Rhine-Westphalia, Germany

Now
42 °F

Light freezing rain. Low clouds.


Feels Like: 38 °F
Forecast: 38 / 46 °F
Wind: 6 mph from South

Location: Essen

Current Time: Feb 27, 2015 at 12:06:00 AM

Latest Report: Feb 26, 2015 at 11:00 PM


Visibility: 2 mi

Pressure: 29.81 "Hg

Humidity: 98%

Dew point: 41 °F

Location of HattingenLocation

Historic Weather in Hattingen — Graph

°F

Hattingen temperature yesterday

Maximum temperature yesterday: 47 °F (at 3:00 PM)
Minimum temperature yesterday: 36 °F (at 7:00 AM)
Average temperature yesterday: 42 °F

Past Weeks' High & Low Weather Summary

 TemperatureHumidityPressure
High51 °F (Feb 14, 3:00 PM)100% (Feb 17, 7:00 AM)30.77 "Hg (Feb 17, 7:00 AM)
Low31 °F (Feb 12, 1:00 AM)59% (Feb 13, 3:00 PM)29.35 "Hg (Feb 21, 4:00 AM)
Average38 °F87%29.99 "Hg
* Reported Feb 11 11:00 PM — Feb 26 11:00 PM, Hattingen, Weather by CustomWeather, © 2015

Note: Actual official high and low records may vary slightly from our data, if they occured in-between our weather recording intervals... More about our weather records

Advertising

Hattingen weather history for previous 24 hours

 ConditionsComfort  
Time TempWeatherWind HumidityBarometerVisibility
11:00 PM
Thu, Feb 26
42 °FLight freezing rain. Low clouds.6 mph98%29.81 "Hg2 mi
10:00 PM42 °FLow clouds.7 mph94%29.83 "Hg7 mi
9:00 PM44 °FLow clouds.6 mph83%29.85 "Hg14 mi
8:00 PM45 °FOvercast.6 mph75%29.87 "Hg19 mi
7:00 PM45 °FOvercast.7 mph77%29.88 "Hg22 mi
6:00 PM46 °FOvercast.7 mph73%29.90 "Hg22 mi
5:00 PM47 °FLight rain. Overcast.6 mph72%29.92 "Hg19 mi
4:00 PM47 °FOvercast.6 mph73%29.94 "Hg19 mi
3:00 PM47 °FOvercast.7 mph75%29.97 "Hg19 mi
2:00 PM47 °FOvercast.8 mph76%29.99 "Hg19 mi
1:00 PM46 °FOvercast.6 mph78%30.03 "Hg15 mi
12:00 PM46 °FScattered clouds.6 mph79%30.05 "Hg14 mi
11:00 AM43 °FScattered clouds.7 mph81%30.06 "Hg16 mi
10:00 AM42 °FPassing clouds.6 mph87%30.08 "Hg9 mi
9:00 AM39 °FFog.5 mph94%30.09 "Hg4 mi
7:00 AM36 °FFog.2 mph99%30.11 "Hg2 mi
6:00 AM37 °FFog.2 mph97%30.12 "Hg3 mi
5:00 AM37 °FFog.2 mph97%30.12 "Hg3 mi
4:00 AM37 °FFog.2 mph98%30.11 "Hg3 mi
3:00 AM38 °FFog.2 mph97%30.12 "Hg3 mi
2:00 AM38 °FFog.2 mph100%30.13 "Hg2 mi
1:00 AM38 °FFog.2 mph100%30.13 "Hg2 mi
12:00 AM38 °FLow clouds.2 mph100%30.13 "Hg2 mi
Weather by CustomWeather, © 2015

See weather overviewHow to use our weather pages